Flag for Bosnia-Herzegovina Weather past 2 weeks in Tuzla, Bosnia-Herzegovina

Now
32 °F

Snow. Ice fog.


Feels Like: 29 °F
Forecast: 31 / 38 °F
Wind: 3 mph from West

Location: Tuzla

Current Time: Jan 26, 2015 at 6:35:45 AM

Latest Report: Jan 26, 2015 at 6:00 AM


Visibility: 1 mi

Pressure: 30.18 "Hg

Humidity: 100%

Dew point: 32 °F

Location of TuzlaLocation

Historic Weather in Tuzla — Graph

°F

Tuzla temperature yesterday

Maximum temperature yesterday: 34 °F (at 7:00 AM)
Minimum temperature yesterday: 32 °F (at 5:00 AM)
Average temperature yesterday: 33 °F

Past Weeks' High & Low Weather Summary

 TemperatureHumidityPressure
High61 °F (Jan 17, 2:00 PM)100% (Jan 11, 5:30 AM)30.42 "Hg (Jan 11, 5:30 AM)
Low18 °F (Jan 14, 8:00 AM)44% (Jan 17, 12:30 PM)29.74 "Hg (Jan 23, 5:00 AM)
Average39 °F95%30.01 "Hg
* Reported Jan 11 5:30 AM — Jan 26 5:30 AM, Tuzla, Weather by CustomWeather, © 2014

Note: Actual official high and low records may vary slightly from our data, if they occured in-between our weather recording intervals... More about our weather records

Advertising

Tuzla weather history for previous 24 hours

 ConditionsComfort  
Time TempWeatherWind HumidityBarometerVisibility
5:30 AM
Jan 26
32 °FSnow. Ice fog.3 mph100%30.18 "Hg1 mi
5:00 AM32 °FSnow. Ice fog.5 mph100%30.18 "Hg1 mi
8:00 PM
Jan 25
32 °FLight snow. Ice fog.6 mph100%30.12 "Hg1 mi
7:30 PM32 °FLight snow. Ice fog.6 mph100%30.12 "Hg1 mi
7:00 PM32 °FLight snow. Ice fog.5 mph100%30.09 "Hg1 mi
6:30 PM32 °FLight snow. Ice fog.5 mph100%30.09 "Hg2 mi
6:00 PM32 °FLight snow. Ice fog.6 mph100%30.09 "Hg2 mi
5:30 PM32 °FLight rain. Ice fog.6 mph100%30.09 "Hg2 mi
5:00 PM32 °FLight snow. Ice fog.7 mph100%30.07 "Hg2 mi
4:30 PM32 °FLight snow. Ice fog.7 mph100%30.07 "Hg2 mi
4:00 PM32 °FLight snow. Ice fog.7 mph100%30.07 "Hg2 mi
3:00 PM32 °FLight snow. Ice fog.8 mph100%30.04 "Hg1 mi
2:00 PM34 °FLight snow. Fog.10 mph100%30.04 "Hg1 mi
1:00 PM34 °FLight snow. More clouds than sun.8 mph100%30.04 "Hg4 mi
12:00 PM34 °FLight snow. Fog.10 mph100%30.04 "Hg2 mi
11:00 AM34 °FLight snow. Fog.5 mph100%30.04 "Hg1 mi
10:00 AM34 °FLight snow. Fog.7 mph100%30.01 "Hg2 mi
9:00 AM34 °FLight snow. Fog.6 mph100%30.01 "Hg2 mi
8:00 AM34 °FLight snow. Mostly cloudy.6 mph100%29.98 "Hg4 mi
7:00 AM34 °FLight snow. Mostly cloudy.6 mph100%29.95 "HgN/A
6:00 AM32 °FLight snow. Mostly cloudy.8 mph100%29.92 "HgN/A
Weather by CustomWeather, © 2014

See weather overviewHow to use our weather pages